Clarksburg, WV

6:27 AM EST on December 15, 2019 (GMT -0500)
Benedum

Weather History for KCKB - June, 2019

Change the Weather History Date:

Thursday, June 13, 2019

  Actual Average Record
Temperature  
Mean Temperature 62 °F -  
Max Temperature 70 °F 81 °F 94 °F (1954)
Min Temperature 53 °F 56 °F 44 °F (1972)
Degree Days  
Heating Degree Days 4    
Growing Degree Days 12 (Base 50)    
Moisture  
Dew Point 53 °F    
Average Humidity 72    
Maximum Humidity 90    
Minimum Humidity 48    
Precipitation  
Precipitation 0.69 in - - ()
Sea Level Pressure  
Sea Level Pressure 29.80 in    
Wind  
Wind Speed 7 mph ()    
Max Wind Speed 28 mph    
Max Gust Speed 40 mph    
Visibility 7.8 miles    
Events Rain , Thunderstorm    
Averages and records for this station are not official NWS values.
T = Trace of Precipitation, MM = Missing Value Source: Averaged Metar Reports

Daily Weather History Graph

Daily Weather History Graph

Search for Another Location

Airport or City:

Astronomy

Jun. 13, 2019 Rise Set
Actual Time 5:53 AM EDT 8:48 PM EDT
Civil Twilight 5:21 AM EDT 9:20 PM EDT
Nautical Twilight 4:40 AM EDT 10:01 PM EDT
Astronomical Twilight 3:53 AM EDT 10:48 PM EDT
Moon 5:02 PM EDT (6/13) 3:36 AM EDT (6/13)
Length of Visible Light 15h 59m
Length of Day
14h 54m
Waxing Gibbous, 85% of the Moon is Illuminated
Jun 13
Waxing Gibbous
Jun 17
Full
Jun 25
Last Quarter
Jul 2
New
Jul 9
First Quarter

Hourly Weather History & Observations

Time (EDT) Temp. Dew Point Humidity Pressure Visibility Wind Dir Wind Speed Gust Speed Precip Events Conditions
12:53 AM 66.9 °F 48.9 °F 52% 29.83 in 10.0 mi SE 4.6 mph - N/A   Mostly Cloudy
1:53 AM 66.0 °F 48.9 °F 54% 29.80 in 10.0 mi ESE 5.8 mph - N/A   Partly Cloudy
2:53 AM 64.9 °F 51.1 °F 61% 29.78 in 10.0 mi Calm Calm - N/A   Overcast
3:53 AM 62.1 °F 55.0 °F 78% 29.76 in 10.0 mi Calm Calm - 0.01 in   Overcast
4:53 AM 62.1 °F 55.9 °F 80% 29.75 in 10.0 mi Calm Calm - N/A   Overcast
5:53 AM 61.0 °F 55.9 °F 83% 29.76 in 7.0 mi South 3.5 mph - 0.02 in Rain Light Rain
6:53 AM 60.1 °F 55.0 °F 83% 29.76 in 10.0 mi SE 3.5 mph - 0.03 in   Overcast
7:10 AM 60.1 °F 55.9 °F 86% 29.81 in 2.5 mi SW 6.9 mph - 0.02 in Rain Rain
7:14 AM 60.1 °F 55.9 °F 86% 29.81 in 1.2 mi SW 4.6 mph - 0.05 in Rain Heavy Rain
7:21 AM 60.1 °F 57.0 °F 90% 29.81 in 1.5 mi SSW 3.5 mph - 0.06 in Rain Rain
7:29 AM 60.1 °F 55.9 °F 86% 29.81 in 3.0 mi SSW 3.5 mph - 0.08 in Rain Rain
7:53 AM 60.1 °F 55.9 °F 86% 29.76 in 4.0 mi ESE 4.6 mph - 0.12 in Rain Rain
8:53 AM 61.0 °F 57.9 °F 90% 29.76 in 10.0 mi SSE 4.6 mph - 0.02 in   Mostly Cloudy
9:35 AM 63.0 °F 57.9 °F 84% 29.78 in 10.0 mi SSW 6.9 mph - 0.00 in Rain Light Rain
9:53 AM 63.0 °F 57.9 °F 84% 29.75 in 10.0 mi South 6.9 mph - 0.00 in   Overcast
10:53 AM 66.0 °F 57.9 °F 75% 29.74 in 10.0 mi SW 12.7 mph 20.7 mph N/A   Overcast
11:51 AM 66.2 °F 55.4 °F 68% 29.78 in 10.0 mi SW 13.8 mph 28.8 mph N/A   Overcast
11:53 AM 66.9 °F 55.9 °F 68% 29.74 in 10.0 mi SW 15.0 mph 28.8 mph N/A   Overcast
12:53 PM 70.0 °F 57.0 °F 63% 29.73 in 10.0 mi WSW 16.1 mph - N/A   Unknown
1:05 PM 69.1 °F 55.0 °F 61% 29.76 in 10.0 mi North - - N/A   Mostly Cloudy
1:27 PM 68.0 °F 54.0 °F 61% 29.76 in 10.0 mi SW 16.1 mph 24.2 mph N/A Thunderstorm Overcast
1:36 PM 64.9 °F 53.1 °F 65% 29.77 in 1.0 mi WNW 20.7 mph 33.4 mph 0.13 in Rain , Thunderstorm Rain
1:39 PM 61.0 °F 51.1 °F 70% 29.76 in 0.8 mi WNW 8.1 mph 33.4 mph 0.14 in Rain , Thunderstorm Heavy Thunderstorms and Rain
1:46 PM 61.0 °F 51.1 °F 70% 29.76 in 2.5 mi West 5.8 mph - 0.14 in Rain , Thunderstorm Light Thunderstorms and Rain
1:53 PM 62.1 °F 53.1 °F 72% 29.73 in 10.0 mi West 6.9 mph - 0.14 in Thunderstorm Thunderstorm
2:03 PM 64.0 °F 55.0 °F 73% 29.76 in 10.0 mi WSW 9.2 mph - N/A Thunderstorm Scattered Clouds
2:11 PM 66.0 °F 55.9 °F 70% 29.76 in 10.0 mi WSW 8.1 mph - N/A   Partly Cloudy
2:53 PM 69.1 °F 55.9 °F 63% 29.71 in 10.0 mi SSW 20.7 mph 27.6 mph 0.01 in   Mostly Cloudy
3:11 PM 69.1 °F 55.0 °F 61% 29.75 in 10.0 mi SW 13.8 mph - N/A Thunderstorm Thunderstorm
3:41 PM 68.0 °F 54.0 °F 61% 29.76 in 10.0 mi WSW 23.0 mph 28.8 mph 0.00 in Thunderstorm Mostly Cloudy
3:49 PM 64.4 °F 53.6 °F 68% 29.80 in 2.5 mi WSW 27.6 mph 40.3 mph 0.06 in Rain , Thunderstorm Light Thunderstorms and Rain
3:53 PM 60.1 °F 52.0 °F 75% 29.76 in 1.0 mi West 17.3 mph 40.3 mph 0.15 in Rain , Thunderstorm Heavy Thunderstorms and Rain
4:04 PM 60.1 °F 55.0 °F 83% 29.80 in 3.0 mi WSW 11.5 mph - 0.03 in Rain , Thunderstorm Heavy Thunderstorms and Rain
4:17 PM 64.0 °F 57.0 °F 78% 29.80 in 10.0 mi WSW 13.8 mph 21.9 mph 0.03 in   Scattered Clouds
4:53 PM 64.9 °F 53.1 °F 65% 29.79 in 10.0 mi West 19.6 mph 32.2 mph 0.04 in   Mostly Cloudy
5:53 PM 66.0 °F 48.0 °F 52% 29.81 in 10.0 mi West 15.0 mph 25.3 mph N/A   Scattered Clouds
6:53 PM 66.0 °F 46.0 °F 48% 29.82 in 10.0 mi West 12.7 mph 19.6 mph N/A   Mostly Cloudy
7:53 PM 63.0 °F 48.9 °F 60% 29.84 in 10.0 mi SSW 12.7 mph - N/A   Mostly Cloudy
8:16 PM 61.0 °F 50.0 °F 67% 29.86 in 10.0 mi SW 11.5 mph - 0.00 in Rain , Thunderstorm Light Thunderstorms and Rain
8:26 PM 54.0 °F 45.0 °F 72% 29.89 in 1.5 mi West 8.1 mph 40.3 mph 0.15 in Rain , Thunderstorm Heavy Thunderstorms and Rain
8:36 PM 54.0 °F 46.9 °F 77% 29.89 in 5.0 mi WSW 10.4 mph - 0.15 in Rain , Thunderstorm Light Thunderstorms and Rain
8:49 PM 53.6 °F 46.4 °F 77% 29.89 in 10.0 mi SW 6.9 mph - 0.15 in Thunderstorm Mostly Cloudy
8:53 PM 53.1 °F 46.9 °F 80% 29.88 in 10.0 mi SSW 6.9 mph - 0.15 in Thunderstorm Mostly Cloudy
8:55 PM 53.1 °F 46.9 °F 80% 29.89 in 10.0 mi SSW 6.9 mph - N/A   Mostly Cloudy
9:53 PM 54.0 °F 48.0 °F 80% 29.90 in 10.0 mi SSW 8.1 mph - N/A   Overcast
10:53 PM 55.9 °F 48.0 °F 75% 29.92 in 10.0 mi SW 11.5 mph - N/A   Overcast
11:53 PM 55.0 °F 46.9 °F 74% 29.93 in 10.0 mi WSW 10.4 mph 19.6 mph 0.00 in   Overcast